User: anonymous   Login
Location: Arena
(42.5007°N, 9.4650°E)
Time: 13:16:06
(UTC+00:00)
Language:

Cosmos 1825 - Orbit

View from above orbital plane
View from above orbital plane
View from above satellite
View from above satellite

Ground track
Ground track

The orbit data is extracted from the following two-line orbital elements,

1 17566U 87024A   20191.72531081 +.00000432 +00000-0 +18503-4 0  9996
2 17566 082.5049 259.9192 0002091 279.8388 080.2611 15.20071148823403
Epoch (UTC): 09 July 2020 17:24:26
Eccentricity: 0.0002091
inclination: 82.5049°
perigee height: 504 km
apogee height: 507 km
right ascension of ascending node: 259.9192°
argument of perigee: 279.8388°
revolutions per day: 15.20071148
mean anomaly at epoch: 80.2611°
orbit number at epoch: 82340

The dashed part of the orbit path shows where the satellite is in the earth's shadow,  

DLR